THY1233 LTFM-LOWW

Flight info

Callsign THY1233
Flight time 1h 56m
Altitude 36000
Route TUDBU1D/35L TUDBU DCT ETUBA DCT APROB DCT BALUX DCT TORNO DCT NATEX NATEX2W
Aircraft B738/M-SDE2E3FGHIRWXY/LB1

Departure

Time 2026-05-06 17:28
Airport İstanbul Airport (LTFM)

Arrival

Time 2026-05-06 19:24
Airport Vienna International Airport (LOWW)
Time Latitude Longitude Altitude Speed Heading
2026-05-06 17:09 41.26629 28.73430 175 ft 0 kts 74°
2026-05-06 17:21 41.26628 28.73421 175 ft 2 kts 74°
2026-05-06 17:21 41.26627 28.73417 175 ft 0 kts 74°
2026-05-06 17:21 41.26624 28.73407 175 ft 2 kts 74°
2026-05-06 17:22 41.26620 28.73386 175 ft 2 kts 73°
2026-05-06 17:22 41.26616 28.73366 175 ft 2 kts 59°
2026-05-06 17:22 41.26586 28.73349 175 ft 0 kts 346°
2026-05-06 17:24 41.26590 28.73348 175 ft 1 kts 346°
2026-05-06 17:24 41.26609 28.73342 175 ft 4 kts 348°
2026-05-06 17:25 41.26649 28.73336 175 ft 8 kts 359°
2026-05-06 17:25 41.26702 28.73307 175 ft 9 kts 306°
2026-05-06 17:25 41.26710 28.73210 175 ft 12 kts 269°
2026-05-06 17:25 41.26708 28.73091 175 ft 14 kts 269°
2026-05-06 17:26 41.26707 28.72952 175 ft 16 kts 269°
2026-05-06 17:26 41.26706 28.72798 176 ft 16 kts 270°
2026-05-06 17:26 41.26704 28.72648 178 ft 16 kts 269°
2026-05-06 17:26 41.26735 28.72521 177 ft 16 kts 335°
2026-05-06 17:27 41.26867 28.72512 177 ft 28 kts 359°
2026-05-06 17:27 41.27312 28.72504 173 ft 98 kts 359°
2026-05-06 17:27 41.28188 28.72488 178 ft 155 kts 359°
2026-05-06 17:27 41.29369 28.72464 584 ft 170 kts
2026-05-06 17:28 41.30532 28.72433 1442 ft 168 kts 359°
2026-05-06 17:28 41.31773 28.72432 1911 ft 189 kts 359°
2026-05-06 17:28 41.33138 28.72446 2520 ft 199 kts 360°
2026-05-06 17:28 41.34514 28.72460 3296 ft 199 kts 359°
2026-05-06 17:29 41.35918 28.72488 3863 ft 204 kts 359°
2026-05-06 17:29 41.37392 28.72501 4197 ft 221 kts 356°
2026-05-06 17:29 41.38931 28.72090 4611 ft 231 kts 335°
2026-05-06 17:29 41.40378 28.71147 5157 ft 240 kts 333°
2026-05-06 17:30 41.41941 28.70129 5600 ft 257 kts 334°
2026-05-06 17:30 41.43568 28.69100 6457 ft 256 kts 334°
2026-05-06 17:30 41.45171 28.68092 7384 ft 254 kts 335°
2026-05-06 17:30 41.46765 28.67078 8077 ft 260 kts 335°
2026-05-06 17:31 41.48418 28.66029 8775 ft 265 kts 335°
2026-05-06 17:31 41.50092 28.64962 9583 ft 267 kts 335°
2026-05-06 17:31 41.51767 28.63889 10386 ft 267 kts 335°
2026-05-06 17:31 41.53475 28.62797 10867 ft 280 kts 335°
2026-05-06 17:32 41.55303 28.61632 11072 ft 302 kts 335°
2026-05-06 17:32 41.57248 28.60327 11233 ft 324 kts 329°
2026-05-06 17:32 41.58981 28.58244 11422 ft 345 kts 313°
2026-05-06 17:32 41.60588 28.55786 11896 ft 354 kts 313°
2026-05-06 17:33 41.62239 28.53312 12547 ft 357 kts 314°
2026-05-06 17:33 41.63914 28.50838 13227 ft 360 kts 314°
2026-05-06 17:33 41.65590 28.48380 13874 ft 364 kts 314°
2026-05-06 17:33 41.67243 28.45791 14427 ft 369 kts 306°
2026-05-06 17:34 41.68373 28.42672 15046 ft 375 kts 295°
2026-05-06 17:34 41.69382 28.39439 15662 ft 377 kts 296°
2026-05-06 17:34 41.70417 28.36193 16211 ft 381 kts 296°
2026-05-06 17:34 41.71473 28.32925 16798 ft 383 kts 296°
2026-05-06 17:35 41.72528 28.29678 17359 ft 386 kts 296°
2026-05-06 17:35 41.73608 28.26360 17887 ft 390 kts 297°
2026-05-06 17:35 41.74698 28.23015 18406 ft 394 kts 297°
2026-05-06 17:36 41.76898 28.16246 19383 ft 398 kts 297°
2026-05-06 17:36 41.78004 28.12837 19879 ft 400 kts 297°
2026-05-06 17:36 41.79120 28.09404 20353 ft 402 kts 298°
2026-05-06 17:36 41.80507 28.06174 20789 ft 400 kts 309°
2026-05-06 17:37 41.82203 28.03205 21236 ft 402 kts 311°
2026-05-06 17:37 41.83944 28.00241 21635 ft 406 kts 311°
2026-05-06 17:37 41.85685 27.97250 22081 ft 408 kts 310°
2026-05-06 17:37 41.87418 27.94224 22531 ft 410 kts 310°
2026-05-06 17:38 41.89126 27.91200 22954 ft 412 kts 310°
2026-05-06 17:38 41.90856 27.88113 23370 ft 415 kts 310°
2026-05-06 17:38 41.92590 27.85009 23750 ft 417 kts 310°
2026-05-06 17:38 41.94333 27.81884 24130 ft 417 kts 310°
2026-05-06 17:39 41.96077 27.78757 24535 ft 418 kts 310°
2026-05-06 17:39 41.97901 27.75719 24860 ft 418 kts 315°
2026-05-06 17:39 41.99899 27.72879 25158 ft 419 kts 317°
2026-05-06 17:39 42.01975 27.70108 25480 ft 420 kts 318°
2026-05-06 17:40 42.04071 27.67352 25801 ft 422 kts 318°
2026-05-06 17:40 42.06171 27.64574 26083 ft 424 kts 317°
2026-05-06 17:40 42.08274 27.61760 26397 ft 426 kts 317°
2026-05-06 17:40 42.10333 27.58972 26737 ft 425 kts 317°
2026-05-06 17:41 42.12414 27.56132 27063 ft 426 kts 317°
2026-05-06 17:41 42.14497 27.53275 27325 ft 429 kts 317°
2026-05-06 17:41 42.16601 27.50381 27455 ft 434 kts 317°
2026-05-06 17:41 42.18713 27.47469 27716 ft 435 kts 316°
2026-05-06 17:42 42.20829 27.44547 28096 ft 434 kts 316°
2026-05-06 17:42 42.22936 27.41634 28525 ft 432 kts 316°
2026-05-06 17:42 42.25027 27.38740 28958 ft 429 kts 316°
2026-05-06 17:42 42.27106 27.35861 29432 ft 426 kts 316°
2026-05-06 17:43 42.29169 27.33003 29840 ft 425 kts 316°
2026-05-06 17:43 42.31230 27.30145 30198 ft 424 kts 316°
2026-05-06 17:43 42.33290 27.27286 30520 ft 423 kts 316°
2026-05-06 17:43 42.35333 27.24447 30897 ft 420 kts 316°
2026-05-06 17:44 42.37370 27.21614 31277 ft 418 kts 316°
2026-05-06 17:44 42.39365 27.18836 31590 ft 417 kts 316°
2026-05-06 17:44 42.41382 27.16025 31885 ft 415 kts 316°
2026-05-06 17:44 42.42733 27.14140 32207 ft 411 kts 316°
2026-05-06 17:45 42.45360 27.10472 32694 ft 408 kts 316°
2026-05-06 17:45 42.47345 27.07699 32850 ft 411 kts 316°
2026-05-06 17:45 42.49341 27.04909 33074 ft 411 kts 316°
2026-05-06 17:45 42.51321 27.02136 33423 ft 409 kts 316°
2026-05-06 17:46 42.53292 26.99373 33803 ft 405 kts 316°
2026-05-06 17:46 42.55252 26.96621 34099 ft 404 kts 316°
2026-05-06 17:46 42.57204 26.93880 34261 ft 405 kts 316°
2026-05-06 17:46 42.59161 26.91130 34423 ft 405 kts 316°
2026-05-06 17:47 42.61122 26.88371 34614 ft 405 kts 316°
2026-05-06 17:47 42.63053 26.85651 34806 ft 405 kts 316°
2026-05-06 17:47 42.65013 26.82888 34960 ft 406 kts 316°
2026-05-06 17:47 42.66974 26.80120 35107 ft 407 kts 316°
2026-05-06 17:48 42.70919 26.74544 35390 ft 409 kts 315°
2026-05-06 17:48 42.72895 26.71748 35583 ft 409 kts 315°
2026-05-06 17:48 42.74864 26.68957 35781 ft 409 kts 315°
2026-05-06 17:49 42.76168 26.67108 35912 ft 408 kts 315°
2026-05-06 17:49 42.78135 26.64317 36046 ft 409 kts 315°
2026-05-06 17:49 42.82744 26.57797 36042 ft 410 kts 316°
2026-05-06 17:50 42.86794 26.52362 36018 ft 406 kts 317°
2026-05-06 17:50 42.90157 26.47901 36012 ft 404 kts 317°
2026-05-06 17:51 42.94820 26.41674 36023 ft 403 kts 317°
2026-05-06 17:51 42.98812 26.36309 36021 ft 403 kts 317°
2026-05-06 17:52 43.02810 26.30918 36025 ft 404 kts 317°
2026-05-06 17:52 43.06141 26.26417 36016 ft 406 kts 316°
2026-05-06 17:53 43.10173 26.20958 35996 ft 409 kts 316°
2026-05-06 17:53 43.14233 26.15450 36001 ft 412 kts 316°
2026-05-06 17:54 43.18322 26.09893 35992 ft 415 kts 316°
2026-05-06 17:54 43.22403 26.04335 35986 ft 417 kts 316°
2026-05-06 17:55 43.26526 25.98708 35968 ft 419 kts 316°
2026-05-06 17:55 43.30651 25.93067 35977 ft 419 kts 316°
2026-05-06 17:56 43.34783 25.87404 35979 ft 419 kts 316°
2026-05-06 17:56 43.38900 25.81752 35974 ft 418 kts 316°
2026-05-06 17:57 43.43005 25.76104 35977 ft 416 kts 316°
2026-05-06 17:57 43.47098 25.70462 35969 ft 415 kts 316°
2026-05-06 17:58 43.51143 25.64874 35961 ft 414 kts 316°
2026-05-06 17:58 43.55196 25.59264 35972 ft 412 kts 316°
2026-05-06 17:59 43.59262 25.53625 35975 ft 417 kts 315°
2026-05-06 17:59 43.63391 25.47886 35973 ft 423 kts 315°
2026-05-06 18:00 43.67549 25.42096 35971 ft 426 kts 315°
2026-05-06 18:00 43.71707 25.36293 35964 ft 428 kts 315°
2026-05-06 18:01 43.75900 25.30427 35945 ft 429 kts 315°
2026-05-06 18:01 43.80102 25.24538 35961 ft 429 kts 315°
2026-05-06 18:02 43.84296 25.18647 35960 ft 429 kts 315°
2026-05-06 18:02 43.88486 25.12748 35966 ft 429 kts 315°
2026-05-06 18:03 43.92651 25.06873 35952 ft 429 kts 315°
2026-05-06 18:03 43.96838 25.00956 35958 ft 429 kts 315°
2026-05-06 18:04 44.00880 24.94845 35961 ft 428 kts 312°
2026-05-06 18:04 44.04793 24.88596 35962 ft 428 kts 311°
2026-05-06 18:05 44.08671 24.82388 35965 ft 428 kts 311°
2026-05-06 18:05 44.12586 24.76152 35948 ft 428 kts 311°
2026-05-06 18:06 44.16510 24.69910 35956 ft 427 kts 311°
2026-05-06 18:06 44.20429 24.63668 35961 ft 427 kts 311°
2026-05-06 18:07 44.24261 24.57553 35964 ft 427 kts 311°
2026-05-06 18:07 44.28171 24.51299 35972 ft 428 kts 311°
2026-05-06 18:08 44.32057 24.45068 35959 ft 428 kts 311°
2026-05-06 18:08 44.35968 24.38785 35961 ft 428 kts 311°
2026-05-06 18:09 44.39870 24.32501 35972 ft 428 kts 311°
2026-05-06 18:09 44.43772 24.26203 35962 ft 427 kts 310°
2026-05-06 18:10 44.47666 24.19906 35973 ft 427 kts 310°
2026-05-06 18:10 44.51533 24.13637 35971 ft 427 kts 310°
2026-05-06 18:11 44.55412 24.07335 35983 ft 427 kts 310°
2026-05-06 18:11 44.59291 24.01019 35989 ft 427 kts 310°
2026-05-06 18:12 44.63167 23.94694 35967 ft 427 kts 310°
2026-05-06 18:12 44.67049 23.88345 35972 ft 427 kts 310°
2026-05-06 18:13 44.70895 23.82039 35969 ft 427 kts 310°
2026-05-06 18:13 44.74766 23.75680 35967 ft 428 kts 310°
2026-05-06 18:14 44.78634 23.69310 35968 ft 428 kts 310°
2026-05-06 18:14 44.82500 23.62930 35966 ft 428 kts 310°
2026-05-06 18:15 44.86367 23.56534 35973 ft 428 kts 310°
2026-05-06 18:15 44.90233 23.50126 35971 ft 429 kts 309°
2026-05-06 18:16 44.94072 23.43747 35984 ft 429 kts 309°
2026-05-06 18:16 44.97933 23.37316 35983 ft 429 kts 309°
2026-05-06 18:17 45.01796 23.30869 35976 ft 429 kts 309°
2026-05-06 18:17 45.05649 23.24422 35989 ft 429 kts 309°
2026-05-06 18:18 45.09505 23.17956 35991 ft 429 kts 309°
2026-05-06 18:18 45.13351 23.11492 35991 ft 429 kts 309°
2026-05-06 18:19 45.17194 23.05017 36003 ft 429 kts 309°
2026-05-06 18:19 45.21033 22.98536 36008 ft 429 kts 309°
2026-05-06 18:20 45.24872 22.92039 36017 ft 429 kts 309°
2026-05-06 18:20 45.28706 22.85537 36006 ft 430 kts 309°
2026-05-06 18:21 45.32522 22.79048 35999 ft 430 kts 309°
2026-05-06 18:21 45.36360 22.72508 36000 ft 431 kts 308°
2026-05-06 18:22 45.40191 22.65965 36008 ft 430 kts 308°
2026-05-06 18:22 45.44019 22.59412 35993 ft 431 kts 308°
2026-05-06 18:23 45.47844 22.52846 35995 ft 431 kts 308°
2026-05-06 18:23 45.51678 22.46251 35990 ft 431 kts 308°
2026-05-06 18:24 45.55504 22.39654 35985 ft 431 kts 308°
2026-05-06 18:24 45.59302 22.33092 35970 ft 431 kts 308°
2026-05-06 18:25 45.63127 22.26465 35967 ft 432 kts 308°
2026-05-06 18:25 45.66946 22.19833 35960 ft 432 kts 308°
2026-05-06 18:26 45.70766 22.13185 35948 ft 432 kts 308°
2026-05-06 18:26 45.74575 22.06539 35957 ft 433 kts 307°
2026-05-06 18:27 45.78398 21.99854 35947 ft 433 kts 307°
2026-05-06 18:27 45.82184 21.93217 35949 ft 433 kts 307°
2026-05-06 18:28 45.86007 21.86499 35944 ft 434 kts 307°
2026-05-06 18:28 45.89826 21.79772 35949 ft 434 kts 307°
2026-05-06 18:29 45.93620 21.73073 35943 ft 435 kts 307°
2026-05-06 18:29 45.97439 21.66313 35936 ft 435 kts 307°
2026-05-06 18:30 46.01257 21.59540 35938 ft 436 kts 307°
2026-05-06 18:30 46.05071 21.52755 35922 ft 436 kts 306°
2026-05-06 18:31 46.08864 21.45994 35924 ft 437 kts 306°
2026-05-06 18:31 46.12689 21.39158 35913 ft 437 kts 306°
2026-05-06 18:32 46.16511 21.32310 35914 ft 438 kts 306°
2026-05-06 18:32 46.20330 21.25450 35913 ft 438 kts 306°
2026-05-06 18:33 46.24124 21.18620 35927 ft 439 kts 306°
2026-05-06 18:33 46.27937 21.11737 35919 ft 439 kts 306°
2026-05-06 18:34 46.31755 21.04829 35922 ft 439 kts 306°
2026-05-06 18:34 46.35570 20.97909 35914 ft 439 kts 306°
2026-05-06 18:35 46.39375 20.90991 35930 ft 439 kts 305°
2026-05-06 18:35 46.43167 20.84078 35911 ft 440 kts 305°
2026-05-06 18:36 46.46981 20.77108 35912 ft 441 kts 305°
2026-05-06 18:36 46.50766 20.70174 35907 ft 441 kts 305°
2026-05-06 18:37 46.53953 20.64321 35906 ft 441 kts 305°
2026-05-06 18:37 46.58370 20.56189 35911 ft 441 kts 304°
2026-05-06 18:38 46.61554 20.50313 35908 ft 441 kts 304°
2026-05-06 18:38 46.65966 20.42150 35901 ft 441 kts 304°
2026-05-06 18:39 46.69117 20.36304 35902 ft 441 kts 304°
2026-05-06 18:40 46.74801 20.25730 35898 ft 441 kts 304°
2026-05-06 18:40 46.78590 20.18658 35899 ft 441 kts 304°
2026-05-06 18:41 46.82363 20.11598 35902 ft 441 kts 304°
2026-05-06 18:41 46.86134 20.04524 35906 ft 441 kts 304°
2026-05-06 18:42 46.89876 19.97485 35925 ft 441 kts 304°
2026-05-06 18:42 46.93635 19.90397 35919 ft 441 kts 304°
2026-05-06 18:43 46.97397 19.83285 35911 ft 442 kts 304°
2026-05-06 18:43 47.01158 19.76155 35914 ft 442 kts 304°
2026-05-06 18:44 47.04915 19.69018 35914 ft 442 kts 304°
2026-05-06 18:44 47.08669 19.61865 35912 ft 443 kts 303°
2026-05-06 18:45 47.12407 19.54724 35910 ft 445 kts 303°
2026-05-06 18:45 47.16184 19.47489 35900 ft 446 kts 303°
2026-05-06 18:46 47.19957 19.40245 35892 ft 446 kts 303°
2026-05-06 18:46 47.23729 19.32983 35903 ft 447 kts 303°
2026-05-06 18:47 47.27502 19.25698 35893 ft 448 kts 303°
2026-05-06 18:47 47.29379 19.22067 35541 ft 454 kts 303°
2026-05-06 18:47 47.31306 19.18334 34983 ft 455 kts 303°
2026-05-06 18:47 47.33214 19.14623 34344 ft 453 kts 302°
2026-05-06 18:48 47.34883 19.10730 33669 ft 445 kts 292°
2026-05-06 18:48 47.36192 19.06603 33006 ft 442 kts 291°
2026-05-06 18:48 47.37453 19.02471 32303 ft 442 kts 291°
2026-05-06 18:48 47.38698 18.98386 31892 ft 444 kts 291°
2026-05-06 18:49 47.39976 18.94214 31373 ft 450 kts 291°
2026-05-06 18:49 47.41281 18.89991 30880 ft 454 kts 291°
2026-05-06 18:49 47.42602 18.85736 30370 ft 455 kts 291°
2026-05-06 18:49 47.43926 18.81485 29879 ft 455 kts 292°
2026-05-06 18:50 47.45253 18.77225 29283 ft 456 kts 292°
2026-05-06 18:50 47.46578 18.72961 28760 ft 456 kts 291°
2026-05-06 18:50 47.47899 18.68699 28244 ft 457 kts 291°
2026-05-06 18:50 47.49223 18.64419 27724 ft 459 kts 291°
2026-05-06 18:51 47.50538 18.60159 27183 ft 461 kts 291°
2026-05-06 18:51 47.51889 18.55779 26647 ft 464 kts 291°
2026-05-06 18:51 47.53214 18.51472 26119 ft 466 kts 291°
2026-05-06 18:51 47.54492 18.47057 25548 ft 468 kts 288°
2026-05-06 18:52 47.55541 18.42476 24946 ft 470 kts 285°
2026-05-06 18:52 47.56501 18.37855 24395 ft 468 kts 284°
2026-05-06 18:52 47.57429 18.33259 23853 ft 461 kts 284°
2026-05-06 18:52 47.58343 18.28753 23267 ft 450 kts 284°
2026-05-06 18:53 47.59239 18.24406 22712 ft 431 kts 284°
2026-05-06 18:53 47.60107 18.20252 22206 ft 413 kts 284°
2026-05-06 18:53 47.60942 18.16285 21870 ft 394 kts 284°
2026-05-06 18:53 47.61747 18.12465 21390 ft 381 kts 284°
2026-05-06 18:54 47.62524 18.08773 20952 ft 369 kts 284°
2026-05-06 18:54 47.63265 18.05240 20529 ft 358 kts 283°
2026-05-06 18:54 47.63720 18.01695 20113 ft 345 kts 273°
2026-05-06 18:54 47.63931 17.98188 19745 ft 336 kts 271°
2026-05-06 18:55 47.64097 17.94754 19356 ft 332 kts 271°
2026-05-06 18:55 47.64254 17.91292 18991 ft 342 kts 270°
2026-05-06 18:55 47.64409 17.87731 18608 ft 348 kts 271°
2026-05-06 18:55 47.64556 17.84126 18184 ft 350 kts 270°
2026-05-06 18:56 47.64697 17.80565 17758 ft 349 kts 270°
2026-05-06 18:56 47.64839 17.76973 17336 ft 346 kts 270°
2026-05-06 18:56 47.64985 17.73425 16974 ft 342 kts 270°
2026-05-06 18:56 47.65134 17.69929 16609 ft 339 kts 270°
2026-05-06 18:57 47.65289 17.66449 16263 ft 335 kts 270°
2026-05-06 18:57 47.65521 17.63035 15997 ft 330 kts 274°
2026-05-06 18:57 47.65866 17.59696 15739 ft 327 kts 275°
2026-05-06 18:57 47.66218 17.56373 15493 ft 324 kts 275°
2026-05-06 18:58 47.66566 17.53078 15241 ft 322 kts 274°
2026-05-06 18:58 47.66906 17.49842 15002 ft 322 kts 274°
2026-05-06 18:58 47.67252 17.46545 14764 ft 325 kts 274°
2026-05-06 18:58 47.67598 17.43221 14536 ft 326 kts 274°
2026-05-06 18:59 47.67944 17.39909 14292 ft 324 kts 274°
2026-05-06 18:59 47.68468 17.36654 14023 ft 329 kts 289°
2026-05-06 18:59 47.69692 17.33753 13789 ft 335 kts 304°
2026-05-06 18:59 47.71311 17.31248 13573 ft 337 kts 311°
2026-05-06 19:00 47.73020 17.28862 13306 ft 337 kts 312°
2026-05-06 19:00 47.74744 17.26497 13036 ft 336 kts 312°
2026-05-06 19:00 47.76467 17.24131 12776 ft 336 kts 311°
2026-05-06 19:00 47.78148 17.21806 12522 ft 335 kts 311°
2026-05-06 19:01 47.79848 17.19440 12265 ft 334 kts 311°
2026-05-06 19:01 47.81544 17.17068 12008 ft 333 kts 311°
2026-05-06 19:01 47.83217 17.14718 11850 ft 328 kts 311°
2026-05-06 19:01 47.84884 17.12372 11824 ft 328 kts 311°
2026-05-06 19:02 47.86533 17.10045 11793 ft 325 kts 312°
2026-05-06 19:02 47.88176 17.07722 11797 ft 325 kts 312°
2026-05-06 19:02 47.89823 17.05391 11791 ft 326 kts 312°
2026-05-06 19:02 47.91453 17.03081 11785 ft 327 kts 312°
2026-05-06 19:03 47.93081 17.00773 11787 ft 327 kts 312°
2026-05-06 19:03 47.94731 16.98432 11786 ft 327 kts 312°
2026-05-06 19:03 47.96400 16.96061 11786 ft 326 kts 311°
2026-05-06 19:03 47.98002 16.93787 11721 ft 318 kts 311°
2026-05-06 19:04 47.99592 16.91529 11431 ft 309 kts 311°
2026-05-06 19:04 48.01117 16.89361 11168 ft 298 kts 311°
2026-05-06 19:04 48.02591 16.87263 10903 ft 287 kts 311°
2026-05-06 19:04 48.04011 16.85236 10647 ft 278 kts 311°
2026-05-06 19:05 48.05396 16.83258 10386 ft 270 kts 310°
2026-05-06 19:05 48.06736 16.81342 10146 ft 263 kts 310°
2026-05-06 19:05 48.08040 16.79477 9902 ft 257 kts 310°
2026-05-06 19:05 48.09299 16.77676 9838 ft 248 kts 310°
2026-05-06 19:06 48.10551 16.75882 9850 ft 253 kts 310°
2026-05-06 19:06 48.11961 16.74198 9851 ft 267 kts 326°
2026-05-06 19:06 48.13640 16.72967 9873 ft 269 kts 329°
2026-05-06 19:06 48.15316 16.71746 9866 ft 268 kts 328°
2026-05-06 19:07 48.16978 16.70498 9863 ft 267 kts 328°
2026-05-06 19:07 48.18633 16.69232 9811 ft 268 kts 327°
2026-05-06 19:07 48.20290 16.67954 9590 ft 265 kts 327°
2026-05-06 19:07 48.21903 16.66712 9354 ft 256 kts 327°
2026-05-06 19:08 48.23536 16.65736 9121 ft 251 kts 339°
2026-05-06 19:08 48.25202 16.65065 8900 ft 244 kts 340°
2026-05-06 19:08 48.26819 16.64443 8669 ft 235 kts 340°
2026-05-06 19:08 48.28373 16.63830 8436 ft 227 kts 339°
2026-05-06 19:09 48.29876 16.63219 8214 ft 227 kts 338°
2026-05-06 19:09 48.31509 16.62529 8064 ft 258 kts 340°
2026-05-06 19:09 48.33224 16.61809 8042 ft 257 kts 340°
2026-05-06 19:09 48.34934 16.61095 7838 ft 252 kts 340°
2026-05-06 19:10 48.36601 16.60399 7644 ft 245 kts 339°
2026-05-06 19:10 48.38222 16.59717 7439 ft 239 kts 339°
2026-05-06 19:10 48.39817 16.59044 7274 ft 237 kts 339°
2026-05-06 19:10 48.41402 16.58374 7119 ft 236 kts 340°
2026-05-06 19:11 48.42978 16.57706 6967 ft 234 kts 340°
2026-05-06 19:11 48.44551 16.57039 6792 ft 234 kts 340°
2026-05-06 19:11 48.46113 16.56375 6606 ft 234 kts 340°
2026-05-06 19:11 48.47681 16.55724 6409 ft 233 kts 340°
2026-05-06 19:12 48.49238 16.55084 6236 ft 231 kts 340°
2026-05-06 19:12 48.50791 16.54464 6060 ft 229 kts 340°
2026-05-06 19:12 48.52303 16.53845 5929 ft 225 kts 335°
2026-05-06 19:12 48.53553 16.52604 5752 ft 211 kts 302°
2026-05-06 19:13 48.54050 16.50629 5605 ft 197 kts 266°
2026-05-06 19:13 48.53782 16.48695 5452 ft 183 kts 237°
2026-05-06 19:13 48.52853 16.47494 5263 ft 179 kts 199°
2026-05-06 19:13 48.51630 16.47127 5241 ft 181 kts 197°
2026-05-06 19:14 48.50605 16.46157 5117 ft 179 kts 235°
2026-05-06 19:14 48.50255 16.44339 5021 ft 186 kts 269°
2026-05-06 19:14 48.50209 16.42436 4950 ft 177 kts 244°
2026-05-06 19:14 48.49351 16.41238 4976 ft 177 kts 197°
2026-05-06 19:15 48.48115 16.41495 4986 ft 190 kts 158°
2026-05-06 19:15 48.46922 16.42387 4964 ft 191 kts 162°
2026-05-06 19:15 48.45715 16.43174 4955 ft 188 kts 163°
2026-05-06 19:15 48.44502 16.43866 4974 ft 185 kts 166°
2026-05-06 19:16 48.43296 16.44466 4968 ft 185 kts 168°
2026-05-06 19:16 48.42056 16.45034 4976 ft 187 kts 169°
2026-05-06 19:16 48.40798 16.45587 4991 ft 189 kts 169°
2026-05-06 19:16 48.39514 16.46140 4989 ft 193 kts 169°
2026-05-06 19:17 48.38218 16.46693 4977 ft 193 kts 169°
2026-05-06 19:17 48.36940 16.47237 4974 ft 189 kts 168°
2026-05-06 19:17 48.35707 16.47761 4969 ft 185 kts 169°
2026-05-06 19:17 48.34445 16.48295 4982 ft 187 kts 169°
2026-05-06 19:18 48.33182 16.48828 4819 ft 195 kts 170°
2026-05-06 19:18 48.31879 16.49380 4591 ft 193 kts 170°
2026-05-06 19:18 48.30594 16.49927 4333 ft 188 kts 170°
2026-05-06 19:18 48.29351 16.50455 4085 ft 182 kts 170°
2026-05-06 19:19 48.28151 16.50964 3835 ft 178 kts 172°
2026-05-06 19:19 48.26979 16.51461 3617 ft 171 kts 172°
2026-05-06 19:19 48.25891 16.51925 3400 ft 155 kts 172°
2026-05-06 19:19 48.24884 16.52350 3197 ft 150 kts 173°
2026-05-06 19:20 48.23880 16.52773 3009 ft 150 kts 173°
2026-05-06 19:20 48.22889 16.53192 2800 ft 144 kts 172°
2026-05-06 19:20 48.21968 16.53587 2579 ft 131 kts 172°
2026-05-06 19:20 48.21124 16.53940 2367 ft 122 kts 172°
2026-05-06 19:21 48.20323 16.54277 2205 ft 118 kts 172°
2026-05-06 19:21 48.19524 16.54618 2106 ft 121 kts 171°
2026-05-06 19:21 48.18703 16.54956 1998 ft 128 kts 171°
2026-05-06 19:21 48.17836 16.55335 1830 ft 131 kts 168°
2026-05-06 19:22 48.16969 16.55734 1680 ft 128 kts 169°
2026-05-06 19:22 48.16113 16.56096 1508 ft 132 kts 169°
2026-05-06 19:22 48.15226 16.56453 1323 ft 132 kts 166°
2026-05-06 19:22 48.14338 16.56823 1121 ft 132 kts 166°
2026-05-06 19:23 48.13464 16.57200 954 ft 132 kts 165°
2026-05-06 19:23 48.12584 16.57578 752 ft 131 kts 165°
2026-05-06 19:23 48.11715 16.57934 628 ft 128 kts 163°
2026-05-06 19:23 48.10982 16.58237 620 ft 67 kts 165°
2026-05-06 19:24 48.10889 16.58270 619 ft 3 kts 173°
2026-05-06 19:24 48.10790 16.58285 615 ft 27 kts 178°
2026-05-06 19:24 48.10619 16.58249 607 ft 19 kts 195°
2026-05-06 19:24 48.10573 16.58230 609 ft 1 kts 193°
2026-05-06 19:25 48.10567 16.58228 609 ft 1 kts 193°
2026-05-06 19:25 48.10562 16.58226 613 ft 1 kts 193°
2026-05-06 19:25 48.10531 16.58216 615 ft 8 kts 192°
2026-05-06 19:25 48.10491 16.58180 621 ft 2 kts 260°
2026-05-06 19:26 48.10500 16.58157 621 ft 3 kts 321°
2026-05-06 19:26 48.10538 16.58145 622 ft 11 kts 347°
2026-05-06 19:26 48.10645 16.58102 617 ft 20 kts 345°
2026-05-06 19:26 48.10757 16.58055 620 ft 16 kts 344°
2026-05-06 19:27 48.10863 16.58011 608 ft 16 kts 344°
2026-05-06 19:27 48.10954 16.57937 614 ft 15 kts 314°
2026-05-06 19:27 48.11027 16.57826 617 ft 16 kts 318°
2026-05-06 19:27 48.11134 16.57748 620 ft 18 kts 329°
2026-05-06 19:28 48.11190 16.57615 620 ft 13 kts 297°
2026-05-06 19:28 48.11230 16.57492 620 ft 13 kts 297°
2026-05-06 19:28 48.11270 16.57374 617 ft 12 kts 294°
2026-05-06 19:28 48.11308 16.57255 620 ft 13 kts 296°
2026-05-06 19:29 48.11351 16.57123 618 ft 14 kts 296°
2026-05-06 19:29 48.11393 16.56990 622 ft 15 kts 295°
2026-05-06 19:29 48.11440 16.56837 620 ft 17 kts 294°
2026-05-06 19:29 48.11494 16.56674 615 ft 18 kts 297°
2026-05-06 19:30 48.11554 16.56491 617 ft 21 kts 295°
2026-05-06 19:30 48.11606 16.56332 619 ft 16 kts 296°
2026-05-06 19:30 48.11656 16.56182 610 ft 16 kts 297°
2026-05-06 19:30 48.11704 16.56038 612 ft 15 kts 296°
2026-05-06 19:31 48.11750 16.55896 616 ft 15 kts 295°
2026-05-06 19:31 48.11794 16.55756 613 ft 15 kts 295°
2026-05-06 19:31 48.11879 16.55497 612 ft 14 kts 285°
2026-05-06 19:32 48.11930 16.55448 610 ft 7 kts 15°
2026-05-06 19:32 48.11963 16.55435 603 ft 4 kts 307°
2026-05-06 19:32 48.11978 16.55391 602 ft 0 kts 295°